| time (UTC) | temp F | wind direction | speed MPH | gust MPH | rain 1hr in | rain 24hr in | rain mn in | humidity % | barometer mb |
| 20260505100044 | 32 | 296 | 4.0 | 15.0 | 0.00 | 0.00 | 0.00 | 72 | 1014.3 |
| 20260505094550 | 34 | 309 | 3.0 | 10.0 | 0.00 | 0.00 | 0.00 | 67 | 1014.2 |
| 20260505093047 | 35 | 352 | 4.0 | 11.0 | 0.00 | 0.00 | 0.00 | 63 | 1013.9 |
| 20260505091556 | 36 | 309 | 6.0 | 11.0 | 0.00 | 0.00 | 0.00 | 57 | 1013.9 |
| 20260505090050 | 37 | 299 | 2.0 | 12.0 | 0.00 | 0.00 | 0.00 | 53 | 1013.9 |
| 20260505084600 | 37 | 312 | 5.0 | 13.0 | 0.00 | 0.00 | 0.00 | 51 | 1013.7 |
| 20260505083059 | 38 | 274 | 5.0 | 15.0 | 0.00 | 0.00 | 0.00 | 52 | 1013.9 |
| 20260505081558 | 38 | 301 | 4.0 | 11.0 | 0.00 | 0.00 | 0.00 | 55 | 1014.1 |
| 20260505080050 | 38 | 305 | 5.0 | 14.0 | 0.00 | 0.00 | 0.00 | 56 | 1014.0 |
| 20260505074540 | 38 | 314 | 6.0 | 14.0 | 0.00 | 0.00 | 0.00 | 56 | 1014.2 |
| 20260505073052 | 38 | 307 | 4.0 | 14.0 | 0.00 | 0.00 | 0.00 | 58 | 1014.4 |
| 20260505071548 | 37 | 317 | 3.0 | 10.0 | 0.00 | 0.00 | 0.00 | 62 | 1014.5 |
| 20260505070054 | 37 | 304 | 3.0 | 12.0 | 0.00 | 0.00 | 0.00 | 62 | 1014.7 |
| 20260505064546 | 38 | 301 | 3.0 | 8.0 | 0.00 | 0.00 | 0.00 | 63 | 1014.7 |
| 20260505063051 | 38 | 0 | 1.0 | 13.0 | 0.00 | 0.00 | 0.00 | 63 | 1014.7 |
| 20260505061542 | 38 | 300 | 2.0 | 11.0 | 0.00 | 0.00 | 0.00 | 63 | 1014.6 |
| 20260505060057 | 38 | 294 | 5.0 | 12.0 | 0.00 | 0.00 | 0.00 | 62 | 1014.5 |
| 20260505054544 | 39 | 296 | 6.0 | 14.0 | 0.00 | 0.00 | 0.00 | 62 | 1014.5 |
| 20260505053043 | 39 | 305 | 5.0 | 16.0 | 0.00 | 0.00 | 0.00 | 63 | 1014.3 |
| 20260505051540 | 40 | 296 | 7.0 | 13.0 | 0.00 | 0.00 | 0.00 | 63 | 1014.2 |
| 20260505041550 | 40 | 304 | 5.0 | 12.0 | 0.00 | 0.00 | 0.00 | 60 | 1013.5 |
| 20260505040047 | 40 | 312 | 4.0 | 12.0 | 0.00 | 0.00 | 0.00 | 59 | 1013.4 |
| 20260505034543 | 41 | 292 | 5.0 | 15.0 | 0.00 | 0.00 | 0.00 | 59 | 1013.2 |
| 20260505033042 | 41 | 300 | 3.0 | 9.0 | 0.00 | 0.00 | 0.00 | 60 | 1013.0 |
| 20260505031543 | 41 | 300 | 6.0 | 11.0 | 0.00 | 0.00 | 0.00 | 60 | 1013.0 |
| 20260505030108 | 41 | 308 | 4.0 | 13.0 | 0.00 | 0.00 | 0.00 | 59 | 1013.0 |
| 20260505024550 | 41 | 308 | 3.0 | 10.0 | 0.00 | 0.00 | 0.00 | 60 | 1012.9 |
| 20260505023044 | 41 | 301 | 6.0 | 12.0 | 0.00 | 0.00 | 0.00 | 59 | 1012.7 |
| 20260505021551 | 41 | 296 | 8.0 | 15.0 | 0.00 | 0.00 | 0.00 | 59 | 1012.7 |
| 20260505020043 | 41 | 296 | 4.0 | 12.0 | 0.00 | 0.00 | 0.00 | 60 | 1012.5 |
| 20260505014607 | 42 | 337 | 3.0 | 13.0 | 0.00 | 0.00 | 0.00 | 59 | 1012.5 |
| 20260505013051 | 42 | 292 | 3.0 | 9.0 | 0.00 | 0.00 | 0.00 | 58 | 1012.5 |
| 20260505011546 | 42 | 307 | 2.0 | 11.0 | 0.00 | 0.00 | 0.00 | 59 | 1012.6 |
| 20260505010059 | 43 | 0 | 1.0 | 9.0 | 0.00 | 0.00 | 0.00 | 59 | 1012.6 |
| 20260505004555 | 43 | 300 | 6.0 | 13.0 | 0.00 | 0.00 | 0.00 | 57 | 1012.6 |
| 20260505003057 | 43 | 313 | 6.0 | 13.0 | 0.00 | 0.00 | 0.00 | 56 | 1012.7 |
| 20260505001546 | 43 | 290 | 6.0 | 18.0 | 0.00 | 0.00 | 0.00 | 57 | 1012.5 |
| 20260505000051 | 43 | 302 | 5.0 | 13.0 | 0.00 | 0.00 | 0.00 | 56 | 1012.6 |
| 20260504234545 | 44 | 291 | 4.0 | 14.0 | 0.00 | 0.00 | 0.00 | 55 | 1012.6 |
| 20260504233045 | 44 | 302 | 5.0 | 13.0 | 0.00 | 0.00 | 0.00 | 56 | 1012.4 |
| 20260504231542 | 44 | 300 | 7.0 | 13.0 | 0.00 | 0.00 | 0.00 | 54 | 1012.3 |
| 20260504230042 | 44 | 306 | 4.0 | 11.0 | 0.00 | 0.00 | 0.00 | 57 | 1012.3 |
| 20260504224545 | 44 | 335 | 4.0 | 11.0 | 0.00 | 0.00 | 0.00 | 58 | 1012.2 |
| 20260504223100 | 44 | 331 | 5.0 | 18.0 | 0.00 | 0.00 | 0.00 | 59 | 1012.3 |
| 20260504221542 | 45 | 300 | 3.0 | 14.0 | 0.00 | 0.00 | 0.00 | 54 | 1012.5 |
| 20260504220045 | 45 | 306 | 2.0 | 13.0 | 0.00 | 0.00 | 0.00 | 54 | 1012.5 |
| 20260504214541 | 45 | 304 | 3.0 | 11.0 | 0.00 | 0.00 | 0.00 | 59 | 1012.7 |
| 20260504213047 | 44 | 324 | 5.0 | 12.0 | 0.00 | 0.00 | 0.00 | 55 | 1012.7 |
| 20260504211624 | 44 | 293 | 4.0 | 13.0 | 0.00 | 0.00 | 0.00 | 53 | 1013.0 |
| 20260504210046 | 44 | 309 | 7.0 | 15.0 | 0.00 | 0.00 | 0.00 | 54 | 1013.3 |
| 20260504204543 | 44 | 292 | 5.0 | 13.0 | 0.00 | 0.00 | 0.00 | 54 | 1013.4 |
| 20260504203050 | 45 | 300 | 7.0 | 19.0 | 0.00 | 0.00 | 0.00 | 51 | 1013.4 |
| 20260504201552 | 47 | 286 | 6.0 | 13.0 | 0.00 | 0.00 | 0.00 | 50 | 1013.2 |
| 20260504200047 | 46 | 305 | 3.0 | 13.0 | 0.00 | 0.00 | 0.00 | 50 | 1013.3 |
| 20260504194549 | 47 | 292 | 5.0 | 14.0 | 0.00 | 0.00 | 0.00 | 51 | 1013.3 |
| 20260504193042 | 48 | 267 | 5.0 | 18.0 | 0.00 | 0.00 | 0.00 | 53 | 1013.2 |
| 20260504191556 | 47 | 317 | 6.0 | 16.0 | 0.00 | 0.00 | 0.00 | 52 | 1013.2 |
| 20260504190044 | 48 | 311 | 2.0 | 10.0 | 0.00 | 0.00 | 0.00 | 53 | 1013.0 |
| 20260504184548 | 48 | 296 | 5.0 | 14.0 | 0.00 | 0.00 | 0.00 | 51 | 1013.1 |
| 20260504183045 | 45 | 300 | 4.0 | 12.0 | 0.00 | 0.00 | 0.00 | 58 | 1013.5 |
| 20260504181544 | 43 | 0 | 3.0 | 11.0 | 0.00 | 0.00 | 0.00 | 61 | 1013.6 |
| 20260504180042 | 42 | 305 | 7.0 | 12.0 | 0.00 | 0.00 | 0.00 | 61 | 1013.6 |
| 20260504174549 | 41 | 303 | 6.0 | 12.0 | 0.00 | 0.00 | 0.00 | 65 | 1014.0 |
| 20260504173057 | 42 | 273 | 2.0 | 11.0 | 0.00 | 0.00 | 0.00 | 65 | 1013.9 |
| 20260504171547 | 42 | 352 | 4.0 | 10.0 | 0.00 | 0.00 | 0.00 | 64 | 1013.9 |